{"data":{"norad_id":59365,"epoch":"2026-05-25T03:41:24.724032Z","epoch_age_seconds":55550,"freshness":"FRESH","line1":"1 59365U 24060T   26145.15375838 -.00000104  00000+0  57271-5 0  9990","line2":"2 59365  43.0012 188.3159 0001180 275.4015  84.6702 15.27577342121755","mean_motion":15.27577342,"eccentricity":0.000118,"inclination_deg":43.0012,"raan_deg":188.3159,"arg_perigee_deg":275.4015,"mean_anomaly_deg":84.6702,"bstar":5.7271e-6,"rev_number":12175,"period_min":94.266912738746,"perigee_km":482.24743416091,"apogee_km":483.8666759579,"semimajor_km":6861.1940550594,"source":"CELESTRAK","updated_at":"2026-05-25T13:38:18.911859Z"}}